Regional Weather Roundup
Issued by NWS Sioux Falls, SD

Home | Current Version | Previous Version | Graphics & Text | Print | Product List | Glossary On
Versions: 1 2 3 4 5 6 7 8 9 10 11 12 13 14 15 16 17 18 19 20 21 22 23 24 25 26 27 28 29 30 31 32 33 34 35 36 37 38 39 40 41 42 43 44 45 46 47 48 49 50
000
ASUS43 KFSD 230110
RWRFSD

WEATHER ROUNDUP FOR SE SOUTH DAKOTA/SW MINNESOTA/NW IOWA
NATIONAL WEATHER SERVICE SIOUX FALLS SD
700 PM CST WED NOV 22 2017

NOTE: "FAIR" INDICATES FEW OR NO CLOUDS BELOW 12,000 FEET WITH NO
SIGNIFICANT WEATHER AND OR OBSTRUCTIONS TO VISIBILITY.


SDZ038>040-050-052>070-230200-
SOUTHEAST SOUTH DAKOTA

CITY           SKY/WX    TMP DP  RH WIND       PRES   REMARKS
BROOKINGS      CLEAR     33  19  56 S6        29.93F WCI  28
CHAMBERLAIN    CLOUDY    47  34  60 SW7       29.94S
HURON          CLEAR     39  24  55 S10       29.91F
MADISON        FAIR      36  19  51 S9        29.94S
MITCHELL       CLEAR     40  25  55 S7        29.93F
SIOUX FALLS    PTCLDY    39  21  48 SW14G20   29.96F
WINNER         FAIR      53  38  56 SW9       29.98R
YANKTON        CLEAR     43  23  45 S8        29.96F
$$

MNZ071-072-080-081-089-090-097-098-230200-
SOUTHWEST MINNESOTA

CITY           SKY/WX    TMP DP  RH WIND       PRES   REMARKS
FAIRMONT       CLOUDY    33  17  51 S17       29.99F WCI  22
JACKSON        CLOUDY    34  18  51 SW16G25   29.97F WCI  23
LUVERNE        CLEAR     30  18  59 SW9       29.97F WCI  22
MARSHALL       CLEAR     35  18  49 W10       29.95S WCI  27
MONTEVIDEO     CLEAR     30  18  59 SW5       29.94F WCI  25
PIPESTONE      CLEAR     30  18  59 SW12      29.93F WCI  21
REDWOOD FALLS  CLEAR     32  15  49 S7        29.99R WCI  26
WINDOM           N/A     34  16  47 S16G23    29.96S WCI  23
WORTHINGTON    CLEAR     32  16  51 SW21G28   29.95R WCI  20
$$

IAZ001>003-012>014-020>022-031-032-NEZ013-014-SDZ071-230200-
NORTHWEST IOWA

CITY           SKY/WX    TMP DP  RH WIND       PRES   REMARKS
CHEROKEE       CLEAR     32  17  54 S12       30.01F WCI  23
DENISON        CLOUDY    34  18  51 S14       30.08F WCI  24
ESTHERVILLE    CLOUDY    33  17  51 S18       29.99F WCI  22
LE MARS        CLEAR     34  19  55 S13       29.99F WCI  25
ORANGE CITY    CLEAR     36  21  55 S12       29.98F
SHELDON        CLEAR     32  18  55 S13G21    29.97F WCI  22
SIOUX CITY     PTCLDY    37  19  48 S10       30.03F
SPENCER        CLEAR     33  16  49 S14       30.01F WCI  23
STORM LAKE     CLEAR     32  16  51 SW17      30.01F WCI  21
$$

ABBREVIATIONS USED IN REMARKS
   TC - TEMPERATURE IN CELSIUS
  WCI - WIND CHILL INDEX
   HX - HEAT INDEX
  VSB - VISIBILITY




USA.gov is the U.S. government's official web portal to all federal, state and local government web resources and services.